TimeAKST,TemperatureF,Dew PointF,Humidity,Sea Level PressureIn,VisibilityMPH,Wind Direction,Wind SpeedMPH,Gust SpeedMPH,PrecipitationIn,Events,Conditions,WindDirDegrees,DateUTC
12:53 AM,33.1,21.9,64,29.85,10.0,ESE,15.0,25.3,N/A,,Overcast,120,2012-12-24 09:53:00
1:53 AM,34.0,23.0,64,29.87,10.0,ESE,16.1,-,N/A,,Overcast,110,2012-12-24 10:53:00
2:44 AM,30.2,24.8,80,29.89,2.5,East,19.6,27.6,0.00,Snow,Light Snow,100,2012-12-24 11:44:00
2:50 AM,30.2,24.8,80,29.89,3.0,ESE,19.6,26.5,0.00,Snow,Light Snow,110,2012-12-24 11:50:00
3:53 AM,32.0,23.0,69,29.90,10.0,ESE,18.4,-,0.00,,Mostly Cloudy,120,2012-12-24 12:53:00
4:53 AM,33.1,21.9,64,29.91,10.0,ESE,23.0,28.8,N/A,,Mostly Cloudy,110,2012-12-24 13:53:00
5:53 AM,33.1,21.9,64,29.91,10.0,ESE,19.6,-,0.00,,Scattered Clouds,110,2012-12-24 14:53:00
6:53 AM,34.0,23.0,64,29.91,10.0,ESE,20.7,-,N/A,,Overcast,120,2012-12-24 15:53:00
7:53 AM,33.1,21.9,64,29.92,10.0,ESE,21.9,27.6,N/A,,Scattered Clouds,110,2012-12-24 16:53:00
8:53 AM,33.1,23.0,66,29.94,10.0,ESE,20.7,27.6,N/A,,Scattered Clouds,110,2012-12-24 17:53:00
9:53 AM,34.0,24.1,67,29.94,10.0,ESE,24.2,29.9,N/A,,Scattered Clouds,110,2012-12-24 18:53:00
10:53 AM,34.0,23.0,64,29.94,10.0,ESE,17.3,-,N/A,,Scattered Clouds,120,2012-12-24 19:53:00
11:53 AM,35.1,23.0,61,29.94,10.0,ESE,17.3,26.5,N/A,,Scattered Clouds,120,2012-12-24 20:53:00
12:53 PM,34.0,23.0,64,29.92,10.0,ESE,19.6,-,N/A,,Mostly Cloudy,110,2012-12-24 21:53:00
1:53 PM,34.0,23.0,64,29.91,10.0,ESE,17.3,24.2,N/A,,Mostly Cloudy,120,2012-12-24 22:53:00
2:53 PM,35.1,21.9,59,29.88,10.0,ESE,17.3,23.0,N/A,,Mostly Cloudy,110,2012-12-24 23:53:00
3:53 PM,35.1,19.9,54,29.87,10.0,ESE,12.7,21.9,N/A,,Mostly Cloudy,120,2012-12-25 00:53:00
4:53 PM,35.1,19.9,54,29.84,10.0,ESE,18.4,25.3,N/A,,Mostly Cloudy,110,2012-12-25 01:53:00
5:53 PM,36.0,18.0,48,29.82,10.0,ESE,20.7,32.2,N/A,,Scattered Clouds,120,2012-12-25 02:53:00
6:53 PM,36.0,17.1,46,29.81,10.0,ESE,19.6,24.2,N/A,,Clear,110,2012-12-25 03:53:00
7:53 PM,37.0,17.1,44,29.78,10.0,ESE,18.4,26.5,N/A,,Clear,120,2012-12-25 04:53:00
8:53 PM,36.0,18.0,48,29.79,10.0,SE,19.6,26.5,N/A,,Clear,130,2012-12-25 05:53:00
9:53 PM,35.1,16.0,46,29.79,10.0,East,27.6,35.7,N/A,,Clear,100,2012-12-25 06:53:00
10:53 PM,34.0,17.1,50,29.78,10.0,ESE,27.6,39.1,N/A,,Clear,110,2012-12-25 07:53:00
11:53 PM,35.1,18.0,50,29.78,10.0,ESE,24.2,36.8,N/A,,Mostly Cloudy,110,2012-12-25 08:53:00